Time,TemperatureF,DewpointF,PressureIn,WindDirection,WindDirectionDegrees,WindSpeedMPH,WindSpeedGustMPH,Humidity,HourlyPrecipIn,Conditions,Clouds,dailyrainin,SoftwareType,DateUTC
2013-08-23 00:00:00,73.5,72.0,30.03,NNW,344,0.0,0.0,95,0.00,,,0.00,Wunderground v.1.15,2013-08-23 04:00:00,
2013-08-23 00:05:00,73.4,71.9,30.03,NNW,344,0.0,0.0,95,0.00,,,0.00,Wunderground v.1.15,2013-08-23 04:05:00,
2013-08-23 00:15:00,73.1,71.6,30.03,NNW,344,0.0,0.0,95,0.00,,,0.00,Wunderground v.1.15,2013-08-23 04:15:00,
2013-08-23 00:20:00,73.0,71.8,30.03,NNW,344,0.0,0.0,96,0.00,,,0.00,Wunderground v.1.15,2013-08-23 04:20:00,
2013-08-23 00:25:00,72.9,71.7,30.02,NNW,344,0.0,0.0,96,0.00,,,0.00,Wunderground v.1.15,2013-08-23 04:25:00,
2013-08-23 00:30:00,72.8,71.6,30.02,NNW,344,0.0,0.0,96,0.00,,,0.00,Wunderground v.1.15,2013-08-23 04:30:00,
2013-08-23 00:35:00,72.8,71.6,30.02,NNW,344,0.0,0.0,96,0.00,,,0.00,Wunderground v.1.15,2013-08-23 04:35:00,
2013-08-23 00:40:00,72.8,71.6,30.02,NNW,344,0.0,0.0,96,0.00,,,0.00,Wunderground v.1.15,2013-08-23 04:40:00,
2013-08-23 00:45:00,72.7,71.5,30.01,NNW,344,0.0,0.0,96,0.00,,,0.00,Wunderground v.1.15,2013-08-23 04:45:00,
2013-08-23 00:50:00,72.6,71.4,30.01,NNW,344,0.0,0.0,96,0.00,,,0.00,Wunderground v.1.15,2013-08-23 04:50:00,
2013-08-23 01:00:00,72.4,71.2,30.01,NNW,344,0.0,0.0,96,0.00,,,0.00,Wunderground v.1.15,2013-08-23 05:00:00,
2013-08-23 01:05:00,72.3,71.4,30.00,NNW,344,0.0,0.0,97,0.00,,,0.00,Wunderground v.1.15,2013-08-23 05:05:00,
2013-08-23 01:15:00,72.3,71.4,30.01,NNW,344,0.0,0.0,97,0.00,,,0.00,Wunderground v.1.15,2013-08-23 05:15:00,
2013-08-23 01:20:00,72.4,71.5,30.01,NNW,344,0.0,0.0,97,0.00,,,0.00,Wunderground v.1.15,2013-08-23 05:20:00,
2013-08-23 01:25:00,72.5,71.6,30.00,NNW,344,0.0,0.0,97,0.00,,,0.00,Wunderground v.1.15,2013-08-23 05:25:00,
2013-08-23 01:35:00,72.6,71.7,29.99,NNW,344,0.0,0.0,97,0.00,,,0.00,Wunderground v.1.15,2013-08-23 05:35:00,
2013-08-23 01:40:00,72.6,71.7,30.00,NNW,344,0.0,0.0,97,0.00,,,0.00,Wunderground v.1.15,2013-08-23 05:40:00,
2013-08-23 01:45:00,72.4,71.5,29.99,NNW,344,0.0,0.0,97,0.00,,,0.00,Wunderground v.1.15,2013-08-23 05:45:00,
2013-08-23 01:55:00,72.2,71.3,30.00,NNW,344,0.0,0.0,97,0.00,,,0.00,Wunderground v.1.15,2013-08-23 05:55:00,
2013-08-23 02:00:00,72.2,71.3,30.00,NNW,344,0.0,0.0,97,0.00,,,0.00,Wunderground v.1.15,2013-08-23 06:00:00,
2013-08-23 02:05:00,72.1,71.2,29.99,NNW,344,0.0,0.0,97,0.00,,,0.00,Wunderground v.1.15,2013-08-23 06:05:00,
2013-08-23 02:15:00,72.3,71.7,29.99,NNW,344,0.0,0.0,98,0.00,,,0.00,Wunderground v.1.15,2013-08-23 06:15:00,
2013-08-23 02:25:00,72.2,71.6,29.98,NNW,344,0.0,0.0,98,0.00,,,0.00,Wunderground v.1.15,2013-08-23 06:25:00,
2013-08-23 02:30:00,72.2,71.6,29.98,NNW,344,0.0,0.0,98,0.00,,,0.00,Wunderground v.1.15,2013-08-23 06:30:00,
2013-08-23 02:35:00,72.2,71.6,29.98,NNW,344,0.0,0.0,98,0.00,,,0.00,Wunderground v.1.15,2013-08-23 06:35:00,
2013-08-23 02:40:00,72.0,71.4,29.97,NNW,344,0.0,0.0,98,0.00,,,0.00,Wunderground v.1.15,2013-08-23 06:40:00,
2013-08-23 02:45:00,71.9,71.3,29.97,NNW,344,0.0,0.0,98,0.00,,,0.00,Wunderground v.1.15,2013-08-23 06:45:00,
2013-08-23 02:55:00,71.7,71.1,29.97,NNW,344,0.0,0.0,98,0.00,,,0.00,Wunderground v.1.15,2013-08-23 06:55:00,
2013-08-23 03:00:00,71.5,70.9,29.97,NNW,344,0.0,0.0,98,0.00,,,0.00,Wunderground v.1.15,2013-08-23 07:00:00,
2013-08-23 03:05:00,71.3,70.7,29.96,NNW,344,0.0,0.0,98,0.00,,,0.00,Wunderground v.1.15,2013-08-23 07:05:00,
2013-08-23 03:15:00,71.1,70.5,29.96,NNW,344,0.0,0.0,98,0.00,,,0.00,Wunderground v.1.15,2013-08-23 07:15:00,
2013-08-23 03:20:00,71.0,70.4,29.96,NNW,344,0.0,0.0,98,0.00,,,0.00,Wunderground v.1.15,2013-08-23 07:20:00,
2013-08-23 03:30:00,70.8,70.2,29.96,NNW,344,0.0,0.0,98,0.00,,,0.00,Wunderground v.1.15,2013-08-23 07:30:00,
2013-08-23 03:35:00,70.7,70.1,29.96,NNW,344,0.0,0.0,98,0.00,,,0.00,Wunderground v.1.15,2013-08-23 07:35:00,
2013-08-23 03:40:00,70.6,70.0,29.96,NNW,344,0.0,0.0,98,0.00,,,0.00,Wunderground v.1.15,2013-08-23 07:40:00,
2013-08-23 03:45:00,70.5,69.9,29.96,NNW,344,0.0,0.0,98,0.00,,,0.00,Wunderground v.1.15,2013-08-23 07:45:00,
2013-08-23 03:50:00,70.4,69.8,29.96,NNW,344,0.0,0.0,98,0.00,,,0.00,Wunderground v.1.15,2013-08-23 07:50:00,
2013-08-23 04:00:00,70.4,69.8,29.96,NNW,344,0.0,0.0,98,0.00,,,0.00,Wunderground v.1.15,2013-08-23 08:00:00,
2013-08-23 04:05:00,70.4,69.8,29.96,NNW,344,0.0,0.0,98,0.00,,,0.00,Wunderground v.1.15,2013-08-23 08:05:00,
2013-08-23 04:15:00,70.2,69.6,29.97,NNW,344,0.0,0.0,98,0.00,,,0.00,Wunderground v.1.15,2013-08-23 08:15:00,
2013-08-23 04:20:00,70.1,69.5,29.96,NNW,344,0.0,0.0,98,0.00,,,0.00,Wunderground v.1.15,2013-08-23 08:20:00,
2013-08-23 04:30:00,70.1,69.8,29.97,NNW,344,0.0,0.0,99,0.00,,,0.00,Wunderground v.1.15,2013-08-23 08:30:00,
2013-08-23 04:35:00,70.0,69.7,29.97,NNW,344,0.0,0.0,99,0.00,,,0.00,Wunderground v.1.15,2013-08-23 08:35:00,
2013-08-23 04:40:00,70.1,69.8,29.97,NNW,344,0.0,0.0,99,0.00,,,0.00,Wunderground v.1.15,2013-08-23 08:40:00,
2013-08-23 04:45:00,70.1,69.8,29.97,NNW,344,0.0,0.0,99,0.00,,,0.00,Wunderground v.1.15,2013-08-23 08:45:00,
2013-08-23 04:50:00,70.1,69.8,29.97,NNW,344,0.0,0.0,99,0.00,,,0.00,Wunderground v.1.15,2013-08-23 08:50:00,
2013-08-23 05:00:00,70.0,69.7,29.97,NNW,344,0.0,0.0,99,0.00,,,0.00,Wunderground v.1.15,2013-08-23 09:00:00,
2013-08-23 05:05:00,69.9,69.6,29.97,NNW,344,0.0,0.0,99,0.00,,,0.00,Wunderground v.1.15,2013-08-23 09:05:00,
2013-08-23 05:15:00,69.7,69.4,29.97,NNW,344,0.0,0.0,99,0.00,,,0.00,Wunderground v.1.15,2013-08-23 09:15:00,
2013-08-23 05:20:00,69.6,69.3,29.96,NNW,344,0.0,0.0,99,0.00,,,0.00,Wunderground v.1.15,2013-08-23 09:20:00,
2013-08-23 05:25:00,69.5,69.2,29.97,NNW,344,0.0,0.0,99,0.00,,,0.00,Wunderground v.1.15,2013-08-23 09:25:00,
2013-08-23 05:35:00,69.4,69.1,29.97,NNW,344,0.0,0.0,99,0.00,,,0.00,Wunderground v.1.15,2013-08-23 09:35:00,
2013-08-23 05:40:00,69.3,69.0,29.97,NNW,344,0.0,0.0,99,0.00,,,0.00,Wunderground v.1.15,2013-08-23 09:40:00,
2013-08-23 05:45:00,69.3,69.0,29.98,NNW,344,0.0,0.0,99,0.00,,,0.00,Wunderground v.1.15,2013-08-23 09:45:00,
2013-08-23 05:50:00,69.3,69.0,29.98,NNW,344,0.0,0.0,99,0.00,,,0.00,Wunderground v.1.15,2013-08-23 09:50:00,
2013-08-23 05:55:00,69.2,68.9,29.99,NNW,344,0.0,0.0,99,0.00,,,0.00,Wunderground v.1.15,2013-08-23 09:55:00,
2013-08-23 06:05:00,69.0,68.7,29.99,NNW,344,0.0,0.0,99,0.00,,,0.00,Wunderground v.1.15,2013-08-23 10:05:00,
2013-08-23 06:15:00,68.9,68.6,29.99,NNW,344,0.0,0.0,99,0.00,,,0.00,Wunderground v.1.15,2013-08-23 10:15:00,
2013-08-23 06:20:00,68.9,68.6,29.99,NNW,344,0.0,0.0,99,0.00,,,0.00,Wunderground v.1.15,2013-08-23 10:20:00,
2013-08-23 06:25:00,69.0,68.7,29.98,NNW,344,0.0,0.0,99,0.00,,,0.00,Wunderground v.1.15,2013-08-23 10:25:00,
2013-08-23 06:30:00,68.9,68.6,29.99,NNW,344,0.0,0.0,99,0.00,,,0.00,Wunderground v.1.15,2013-08-23 10:30:00,
2013-08-23 06:35:00,68.9,68.6,29.99,NNW,344,0.0,0.0,99,0.00,,,0.00,Wunderground v.1.15,2013-08-23 10:35:00,
2013-08-23 06:45:00,68.8,68.5,29.99,NNW,344,0.0,0.0,99,0.00,,,0.00,Wunderground v.1.15,2013-08-23 10:45:00,
2013-08-23 06:50:00,68.9,68.6,29.99,NNW,344,0.0,0.0,99,0.00,,,0.00,Wunderground v.1.15,2013-08-23 10:50:00,
2013-08-23 06:55:00,68.9,68.6,29.99,NNW,344,0.0,0.0,99,0.00,,,0.00,Wunderground v.1.15,2013-08-23 10:55:00,
2013-08-23 07:00:00,68.8,68.5,29.99,NNW,344,0.0,0.0,99,0.00,,,0.00,Wunderground v.1.15,2013-08-23 11:00:00,
2013-08-23 07:05:00,68.8,68.5,30.00,NNW,344,0.0,0.0,99,0.00,,,0.00,Wunderground v.1.15,2013-08-23 11:05:00,
2013-08-23 07:15:00,68.7,68.4,29.99,NNW,344,0.0,0.0,99,0.00,,,0.00,Wunderground v.1.15,2013-08-23 11:15:00,
2013-08-23 07:25:00,68.7,68.4,30.00,NNW,344,0.0,0.0,99,0.00,,,0.00,Wunderground v.1.15,2013-08-23 11:25:00,
2013-08-23 07:30:00,68.7,68.7,30.00,NNW,344,0.0,0.0,100,0.00,,,0.00,Wunderground v.1.15,2013-08-23 11:30:00,
2013-08-23 07:35:00,68.8,68.8,30.00,NNW,344,0.0,0.0,100,0.00,,,0.00,Wunderground v.1.15,2013-08-23 11:35:00,
2013-08-23 07:40:00,69.0,69.0,30.00,NNW,344,0.0,0.0,100,0.00,,,0.00,Wunderground v.1.15,2013-08-23 11:40:00,
2013-08-23 07:45:00,69.1,69.1,30.00,NNW,344,0.0,0.0,100,0.00,,,0.00,Wunderground v.1.15,2013-08-23 11:45:00,
2013-08-23 07:55:00,69.8,69.8,30.01,NNW,344,0.0,0.0,100,0.00,,,0.00,Wunderground v.1.15,2013-08-23 11:55:00,
2013-08-23 08:00:00,69.9,69.9,30.01,NNW,344,0.0,0.0,100,0.00,,,0.00,Wunderground v.1.15,2013-08-23 12:00:00,
2013-08-23 08:05:00,70.3,70.3,30.01,NNW,344,0.0,0.0,100,0.00,,,0.00,Wunderground v.1.15,2013-08-23 12:05:00,
2013-08-23 08:15:00,70.4,70.4,30.01,NNW,344,0.0,0.0,100,0.00,,,0.00,Wunderground v.1.15,2013-08-23 12:15:00,
2013-08-23 08:20:00,70.6,70.6,30.01,NNW,344,0.0,0.0,100,0.00,,,0.00,Wunderground v.1.15,2013-08-23 12:20:00,
2013-08-23 08:25:00,70.7,70.7,30.01,NNW,344,0.0,0.0,100,0.00,,,0.00,Wunderground v.1.15,2013-08-23 12:25:00,
2013-08-23 08:35:00,71.0,71.0,30.01,NNW,344,0.0,0.0,100,0.00,,,0.00,Wunderground v.1.15,2013-08-23 12:35:00,
2013-08-23 08:40:00,71.1,71.1,30.01,NNW,344,0.0,0.0,100,0.00,,,0.00,Wunderground v.1.15,2013-08-23 12:40:00,
2013-08-23 08:45:00,71.3,71.3,30.01,NNW,344,0.0,0.0,100,0.00,,,0.00,Wunderground v.1.15,2013-08-23 12:45:00,
2013-08-23 08:50:00,71.3,71.3,30.01,NNW,344,0.0,0.0,100,0.00,,,0.00,Wunderground v.1.15,2013-08-23 12:50:00,
2013-08-23 09:00:00,71.6,71.6,30.00,NNW,344,0.0,0.0,100,0.00,,,0.00,Wunderground v.1.15,2013-08-23 13:00:00,
2013-08-23 09:05:00,71.6,71.6,30.01,WSW,255,0.0,0.0,100,0.00,,,0.00,Wunderground v.1.15,2013-08-23 13:05:00,
2013-08-23 09:15:00,71.6,71.3,30.00,WSW,250,0.0,0.0,99,0.00,,,0.00,Wunderground v.1.15,2013-08-23 13:15:00,
2013-08-23 09:20:00,71.7,71.4,30.00,WSW,250,0.0,0.0,99,0.00,,,0.00,Wunderground v.1.15,2013-08-23 13:20:00,
2013-08-23 09:25:00,71.9,71.9,30.00,WSW,250,0.0,0.0,100,0.00,,,0.00,Wunderground v.1.15,2013-08-23 13:25:00,
2013-08-23 09:30:00,72.2,71.9,30.00,WSW,250,0.0,0.0,99,0.00,,,0.00,Wunderground v.1.15,2013-08-23 13:30:00,
2013-08-23 09:40:00,72.7,72.4,30.00,SSE,167,0.0,0.0,99,0.00,,,0.00,Wunderground v.1.15,2013-08-23 13:40:00,
2013-08-23 09:45:00,73.1,72.5,30.00,SSE,167,0.0,0.0,98,0.00,,,0.00,Wunderground v.1.15,2013-08-23 13:45:00,
2013-08-23 09:50:00,73.4,72.8,30.00,SSE,167,0.0,0.0,98,0.00,,,0.00,Wunderground v.1.15,2013-08-23 13:50:00,
2013-08-23 09:55:00,73.8,72.9,30.00,SSE,167,0.0,0.0,97,0.00,,,0.00,Wunderground v.1.15,2013-08-23 13:55:00,
2013-08-23 10:00:00,74.1,73.2,30.00,SSE,167,0.0,0.0,97,0.00,,,0.00,Wunderground v.1.15,2013-08-23 14:00:00,
2013-08-23 10:05:00,74.6,73.4,30.00,SSE,167,0.0,0.0,96,0.00,,,0.00,Wunderground v.1.15,2013-08-23 14:05:00,
2013-08-23 10:15:00,75.5,73.7,30.00,SSE,167,0.0,0.0,94,0.00,,,0.00,Wunderground v.1.15,2013-08-23 14:15:00,
2013-08-23 10:20:00,75.9,74.0,30.00,SSE,167,0.0,0.0,94,0.00,,,0.00,Wunderground v.1.15,2013-08-23 14:20:00,
2013-08-23 10:25:00,76.4,73.9,30.00,East,98,0.0,0.0,92,0.00,,,0.00,Wunderground v.1.15,2013-08-23 14:25:00,
2013-08-23 10:30:00,77.0,74.2,30.00,East,98,0.0,0.0,91,0.00,,,0.00,Wunderground v.1.15,2013-08-23 14:30:00,
2013-08-23 10:35:00,77.5,74.3,30.00,East,98,0.0,0.0,90,0.00,,,0.00,Wunderground v.1.15,2013-08-23 14:35:00,
2013-08-23 10:40:00,78.0,74.8,30.00,East,98,0.0,0.0,90,0.00,,,0.00,Wunderground v.1.15,2013-08-23 14:40:00,
2013-08-23 10:50:00,78.8,74.6,30.00,North,355,0.0,0.0,87,0.00,,,0.00,Wunderground v.1.15,2013-08-23 14:50:00,
2013-08-23 10:55:00,79.3,75.1,30.00,North,355,0.0,0.0,87,0.00,,,0.00,Wunderground v.1.15,2013-08-23 14:55:00,
2013-08-23 11:00:00,79.6,74.7,30.00,North,355,0.0,0.0,85,0.00,,,0.00,Wunderground v.1.15,2013-08-23 15:00:00,
2013-08-23 11:05:00,79.9,73.9,30.00,North,5,0.0,0.0,82,0.00,,,0.00,Wunderground v.1.15,2013-08-23 15:05:00,
2013-08-23 11:15:00,80.6,75.0,30.00,South,173,0.0,0.0,83,0.00,,,0.00,Wunderground v.1.15,2013-08-23 15:15:00,
2013-08-23 11:20:00,80.7,74.7,30.01,South,171,0.0,0.0,82,0.00,,,0.00,Wunderground v.1.15,2013-08-23 15:20:00,
2013-08-23 11:25:00,80.9,74.9,30.00,South,171,0.0,0.0,82,0.00,,,0.00,Wunderground v.1.15,2013-08-23 15:25:00,
2013-08-23 11:35:00,81.0,75.3,30.00,SSW,198,0.0,0.0,83,0.00,,,0.00,Wunderground v.1.15,2013-08-23 15:35:00,
2013-08-23 11:40:00,81.1,75.4,30.00,SSW,195,0.0,0.0,83,0.00,,,0.00,Wunderground v.1.15,2013-08-23 15:40:00,
2013-08-23 11:45:00,81.2,75.5,30.00,SSW,195,0.0,0.0,83,0.00,,,0.00,Wunderground v.1.15,2013-08-23 15:45:00,
2013-08-23 11:50:00,81.2,75.5,30.00,South,182,0.0,0.0,83,0.00,,,0.00,Wunderground v.1.15,2013-08-23 15:50:00,
2013-08-23 12:00:00,81.4,75.4,30.00,SSW,206,0.0,0.0,82,0.00,,,0.00,Wunderground v.1.15,2013-08-23 16:00:00,
2013-08-23 12:05:00,81.7,75.7,30.00,North,355,1.0,1.0,82,0.00,,,0.00,Wunderground v.1.15,2013-08-23 16:05:00,
2013-08-23 12:15:00,81.8,75.0,29.99,East,83,1.0,1.0,80,0.00,,,0.00,Wunderground v.1.15,2013-08-23 16:15:00,
2013-08-23 12:20:00,82.0,75.2,29.99,South,169,0.0,0.0,80,0.00,,,0.00,Wunderground v.1.15,2013-08-23 16:20:00,
2013-08-23 12:25:00,82.1,75.3,29.99,SSE,151,0.0,0.0,80,0.00,,,0.00,Wunderground v.1.15,2013-08-23 16:25:00,
2013-08-23 12:30:00,82.1,75.3,29.99,SW,215,0.0,0.0,80,0.00,,,0.00,Wunderground v.1.15,2013-08-23 16:30:00,
2013-08-23 12:40:00,82.1,75.3,29.98,SSE,167,0.0,0.0,80,0.00,,,0.00,Wunderground v.1.15,2013-08-23 16:40:00,
2013-08-23 12:45:00,82.1,75.7,29.98,SW,219,0.0,0.0,81,0.00,,,0.00,Wunderground v.1.15,2013-08-23 16:45:00,
2013-08-23 12:50:00,82.5,75.7,29.98,South,178,0.0,0.0,80,0.00,,,0.00,Wunderground v.1.15,2013-08-23 16:50:00,
2013-08-23 13:00:00,83.2,76.0,29.98,WSW,246,1.0,1.0,79,0.00,,,0.00,Wunderground v.1.15,2013-08-23 17:00:00,
2013-08-23 13:05:00,83.5,75.1,29.98,NW,325,1.0,1.0,76,0.00,,,0.00,Wunderground v.1.15,2013-08-23 17:05:00,
2013-08-23 13:15:00,84.5,76.9,29.98,West,277,1.0,2.0,78,0.00,,,0.00,Wunderground v.1.15,2013-08-23 17:15:00,
2013-08-23 13:20:00,84.6,77.0,29.97,NW,313,1.0,1.0,78,0.00,,,0.00,Wunderground v.1.15,2013-08-23 17:20:00,
2013-08-23 13:36:00,85.1,75.1,29.98,SSW,207,1.0,1.0,72,0.00,,,0.00,Wunderground v.1.15,2013-08-23 17:36:00,
2013-08-23 13:41:00,85.5,76.3,29.97,NNE,26,1.0,1.0,74,0.00,,,0.00,Wunderground v.1.15,2013-08-23 17:41:00,
2013-08-23 13:55:00,86.2,76.1,29.97,WSW,238,0.0,2.0,72,0.00,,,0.00,Wunderground v.1.15,2013-08-23 17:55:00,
2013-08-23 14:05:00,85.9,75.0,29.97,South,182,1.0,1.0,70,0.00,,,0.00,Wunderground v.1.15,2013-08-23 18:05:00,
2013-08-23 14:15:00,86.4,75.5,29.96,NNW,339,1.0,1.0,70,0.00,,,0.00,Wunderground v.1.15,2013-08-23 18:15:00,
2013-08-23 14:20:00,86.7,74.4,29.96,SSE,151,1.0,1.0,67,0.00,,,0.00,Wunderground v.1.15,2013-08-23 18:20:00,
2013-08-23 14:30:00,86.2,75.7,29.96,NW,305,1.0,1.0,71,0.00,,,0.00,Wunderground v.1.15,2013-08-23 18:30:00,
2013-08-23 14:40:00,86.7,75.7,29.95,SSE,150,1.0,1.0,70,0.00,,,0.00,Wunderground v.1.15,2013-08-23 18:40:00,
2013-08-23 14:50:00,86.7,77.0,29.95,SSW,200,0.0,1.0,73,0.00,,,0.00,Wunderground v.1.15,2013-08-23 18:50:00,
2013-08-23 14:55:00,86.7,76.6,29.95,South,174,0.0,1.0,72,0.00,,,0.00,Wunderground v.1.15,2013-08-23 18:55:00,
2013-08-23 15:10:00,87.1,76.5,29.94,SSW,209,1.0,1.0,71,0.00,,,0.00,Wunderground v.1.15,2013-08-23 19:10:00,
2013-08-23 15:15:00,87.1,76.1,29.94,NE,42,1.0,1.0,70,0.00,,,0.00,Wunderground v.1.15,2013-08-23 19:15:00,
2013-08-23 15:20:00,87.1,76.1,29.93,WSW,251,1.0,1.0,70,0.00,,,0.00,Wunderground v.1.15,2013-08-23 19:20:00,
2013-08-23 15:25:00,86.5,76.0,29.93,WSW,250,0.0,1.0,71,0.00,,,0.00,Wunderground v.1.15,2013-08-23 19:25:00,
2013-08-23 15:31:00,85.9,75.8,29.94,SW,235,0.0,0.0,72,0.00,,,0.00,Wunderground v.1.15,2013-08-23 19:31:00,
2013-08-23 15:40:00,85.9,76.2,29.93,SSW,201,1.0,1.0,73,0.00,,,0.00,Wunderground v.1.15,2013-08-23 19:40:00,
2013-08-23 15:45:00,86.1,76.4,29.93,NNW,336,1.0,1.0,73,0.00,,,0.00,Wunderground v.1.15,2013-08-23 19:45:00,
2013-08-23 15:50:00,86.2,75.3,29.93,South,177,1.0,1.0,70,0.00,,,0.00,Wunderground v.1.15,2013-08-23 19:50:00,
2013-08-23 15:55:00,86.4,75.5,29.93,South,191,1.0,1.0,70,0.00,,,0.00,Wunderground v.1.15,2013-08-23 19:55:00,
2013-08-23 16:00:00,86.5,76.0,29.93,SSE,166,1.0,1.0,71,0.00,,,0.00,Wunderground v.1.15,2013-08-23 20:00:00,
2013-08-23 16:05:00,86.9,75.9,29.93,SSE,168,1.0,1.0,70,0.00,,,0.00,Wunderground v.1.15,2013-08-23 20:05:00,
2013-08-23 16:15:00,86.8,75.4,29.93,South,175,1.0,1.0,69,0.00,,,0.00,Wunderground v.1.15,2013-08-23 20:15:00,
2013-08-23 16:25:00,86.5,73.8,29.93,South,182,1.0,1.0,66,0.00,,,0.00,Wunderground v.1.15,2013-08-23 20:25:00,
2013-08-23 16:30:00,86.8,75.4,29.93,South,185,2.0,2.0,69,0.00,,,0.00,Wunderground v.1.15,2013-08-23 20:30:00,
2013-08-23 16:35:00,86.8,75.8,29.93,South,185,1.0,2.0,70,0.00,,,0.00,Wunderground v.1.15,2013-08-23 20:35:00,
2013-08-23 16:40:00,86.5,74.7,29.93,ESE,105,1.0,1.0,68,0.00,,,0.00,Wunderground v.1.15,2013-08-23 20:40:00,
2013-08-23 16:50:00,85.9,75.4,29.92,East,89,0.0,0.0,71,0.00,,,0.00,Wunderground v.1.15,2013-08-23 20:50:00,
2013-08-23 16:55:00,85.6,75.1,29.92,NNE,20,1.0,1.0,71,0.00,,,0.00,Wunderground v.1.15,2013-08-23 20:55:00,
2013-08-23 17:00:00,85.4,75.3,29.92,SSW,209,1.0,1.0,72,0.00,,,0.00,Wunderground v.1.15,2013-08-23 21:00:00,
2013-08-23 17:05:00,84.9,75.3,29.92,NNW,338,0.0,1.0,73,0.00,,,0.00,Wunderground v.1.15,2013-08-23 21:05:00,
2013-08-23 17:15:00,84.9,75.7,29.92,NW,313,0.0,0.0,74,0.00,,,0.00,Wunderground v.1.15,2013-08-23 21:15:00,
2013-08-23 17:20:00,84.9,76.5,29.92,NW,313,0.0,0.0,76,0.00,,,0.00,Wunderground v.1.15,2013-08-23 21:20:00,
2013-08-23 17:30:00,85.1,77.8,29.93,NW,313,0.0,0.0,79,0.00,,,0.00,Wunderground v.1.15,2013-08-23 21:30:00,
2013-08-23 17:35:00,85.1,75.9,29.93,WNW,302,0.0,0.0,74,0.00,,,0.00,Wunderground v.1.15,2013-08-23 21:35:00,
2013-08-23 17:40:00,85.2,76.0,29.93,WNW,302,0.0,0.0,74,0.00,,,0.00,Wunderground v.1.15,2013-08-23 21:40:00,
2013-08-23 17:45:00,85.2,76.0,29.93,SSE,150,0.0,0.0,74,0.00,,,0.00,Wunderground v.1.15,2013-08-23 21:45:00,
2013-08-23 17:50:00,85.1,76.3,29.93,ESE,114,0.0,0.0,75,0.00,,,0.00,Wunderground v.1.15,2013-08-23 21:50:00,
2013-08-23 18:00:00,84.7,76.3,29.93,ESE,114,0.0,0.0,76,0.00,,,0.00,Wunderground v.1.15,2013-08-23 22:00:00,
2013-08-23 18:05:00,84.5,76.5,29.93,NNE,27,0.0,0.0,77,0.00,,,0.00,Wunderground v.1.15,2013-08-23 22:05:00,
2013-08-23 18:15:00,83.9,76.3,29.93,NNE,28,0.0,0.0,78,0.00,,,0.00,Wunderground v.1.15,2013-08-23 22:15:00,
2013-08-23 18:20:00,83.6,76.4,29.93,NNE,28,0.0,0.0,79,0.00,,,0.00,Wunderground v.1.15,2013-08-23 22:20:00,
2013-08-23 18:25:00,83.4,76.2,29.94,NNE,28,0.0,0.0,79,0.00,,,0.00,Wunderground v.1.15,2013-08-23 22:25:00,
2013-08-23 18:35:00,83.1,77.4,29.94,NNE,28,0.0,0.0,83,0.00,,,0.00,Wunderground v.1.15,2013-08-23 22:35:00,
2013-08-23 18:40:00,83.1,77.4,29.95,NNE,28,0.0,0.0,83,0.00,,,0.00,Wunderground v.1.15,2013-08-23 22:40:00,
2013-08-23 18:45:00,83.1,77.4,29.95,NNW,330,0.0,1.0,83,0.00,,,0.00,Wunderground v.1.15,2013-08-23 22:45:00,
2013-08-23 18:55:00,83.2,76.8,29.95,NNW,330,0.0,0.0,81,0.00,,,0.00,Wunderground v.1.15,2013-08-23 22:55:00,
2013-08-23 19:00:00,83.2,76.8,29.96,NNW,330,0.0,0.0,81,0.00,,,0.00,Wunderground v.1.15,2013-08-23 23:00:00,
2013-08-23 19:05:00,83.1,76.3,29.96,NNW,330,0.0,0.0,80,0.00,,,0.00,Wunderground v.1.15,2013-08-23 23:05:00,
2013-08-23 19:15:00,82.6,76.2,29.96,NNW,338,0.0,2.0,81,0.00,,,0.00,Wunderground v.1.15,2013-08-23 23:15:00,
2013-08-23 19:25:00,82.1,76.4,29.97,NNW,338,0.0,0.0,83,0.00,,,0.00,Wunderground v.1.15,2013-08-23 23:25:00,
2013-08-23 19:30:00,81.7,76.0,29.97,WSW,244,0.0,1.0,83,0.00,,,0.00,Wunderground v.1.15,2013-08-23 23:30:00,
2013-08-23 19:35:00,81.0,75.0,29.98,SW,215,0.0,1.0,82,0.00,,,0.00,Wunderground v.1.15,2013-08-23 23:35:00,
2013-08-23 19:40:00,80.4,74.4,29.98,North,360,0.0,0.0,82,0.00,,,0.00,Wunderground v.1.15,2013-08-23 23:40:00,
2013-08-23 19:50:00,79.0,73.0,29.98,SSE,148,0.0,0.0,82,0.00,,,0.00,Wunderground v.1.15,2013-08-23 23:50:00,
2013-08-23 19:55:00,78.5,72.5,29.98,NW,317,0.0,0.0,82,0.00,,,0.00,Wunderground v.1.15,2013-08-23 23:55:00,
2013-08-23 20:05:00,77.6,72.0,29.99,NW,314,0.0,1.0,83,0.00,,,0.00,Wunderground v.1.15,2013-08-24 00:05:00,
2013-08-23 20:15:00,76.8,71.9,29.99,West,274,0.0,0.0,85,0.00,,,0.00,Wunderground v.1.15,2013-08-24 00:15:00,
2013-08-23 20:20:00,76.4,71.9,29.99,WNW,288,0.0,0.0,86,0.00,,,0.00,Wunderground v.1.15,2013-08-24 00:20:00,
2013-08-23 20:25:00,76.0,71.5,30.00,NE,34,0.0,0.0,86,0.00,,,0.00,Wunderground v.1.15,2013-08-24 00:25:00,
2013-08-23 20:30:00,75.7,71.6,30.00,North,360,0.0,0.0,87,0.00,,,0.00,Wunderground v.1.15,2013-08-24 00:30:00,
2013-08-23 20:40:00,75.2,71.7,30.01,East,92,0.0,0.0,89,0.00,,,0.00,Wunderground v.1.15,2013-08-24 00:40:00,
2013-08-23 20:45:00,74.9,71.8,30.01,ENE,65,0.0,0.0,90,0.00,,,0.00,Wunderground v.1.15,2013-08-24 00:45:00,
2013-08-23 20:50:00,74.7,71.9,30.01,ESE,115,0.0,0.0,91,0.00,,,0.00,Wunderground v.1.15,2013-08-24 00:50:00,
2013-08-23 21:00:00,74.3,71.8,30.02,ENE,76,0.0,0.0,92,0.00,,,0.00,Wunderground v.1.15,2013-08-24 01:00:00,
2013-08-23 21:05:00,74.2,71.7,30.02,SW,224,0.0,0.0,92,0.00,,,0.00,Wunderground v.1.15,2013-08-24 01:05:00,
2013-08-23 21:15:00,74.0,71.8,30.02,West,280,0.0,1.0,93,0.00,,,0.00,Wunderground v.1.15,2013-08-24 01:15:00,
2013-08-23 21:20:00,73.9,71.7,30.02,NNE,32,0.0,0.0,93,0.00,,,0.00,Wunderground v.1.15,2013-08-24 01:20:00,
2013-08-23 21:30:00,73.8,71.6,30.03,NNW,329,0.0,1.0,93,0.00,,,0.00,Wunderground v.1.15,2013-08-24 01:30:00,
2013-08-23 21:35:00,73.7,71.5,30.03,ESE,105,0.0,1.0,93,0.00,,,0.00,Wunderground v.1.15,2013-08-24 01:35:00,
2013-08-23 21:40:00,73.7,71.5,30.03,East,80,0.0,0.0,93,0.00,,,0.00,Wunderground v.1.15,2013-08-24 01:40:00,
2013-08-23 21:45:00,73.7,71.5,30.04,ENE,69,0.0,0.0,93,0.00,,,0.00,Wunderground v.1.15,2013-08-24 01:45:00,
2013-08-23 21:55:00,73.6,71.4,30.04,ENE,78,0.0,0.0,93,0.00,,,0.00,Wunderground v.1.15,2013-08-24 01:55:00,
2013-08-23 22:00:00,73.6,71.8,30.04,East,100,0.0,0.0,94,0.00,,,0.00,Wunderground v.1.15,2013-08-24 02:00:00,
2013-08-23 22:05:00,73.5,71.7,30.05,NNE,21,0.0,0.0,94,0.00,,,0.00,Wunderground v.1.15,2013-08-24 02:05:00,
2013-08-23 22:15:00,73.2,71.1,30.05,SSW,200,0.0,0.0,93,0.00,,,0.00,Wunderground v.1.15,2013-08-24 02:15:00,
2013-08-23 22:25:00,72.7,70.9,30.05,ENE,62,0.0,1.0,94,0.00,,,0.00,Wunderground v.1.15,2013-08-24 02:25:00,
2013-08-23 22:30:00,72.4,70.6,30.05,ENE,69,0.0,0.0,94,0.00,,,0.00,Wunderground v.1.15,2013-08-24 02:30:00,
2013-08-23 22:35:00,72.3,70.5,30.05,NNW,331,0.0,0.0,94,0.00,,,0.00,Wunderground v.1.15,2013-08-24 02:35:00,
2013-08-23 22:45:00,72.0,70.2,30.05,NNW,344,0.0,2.0,94,0.00,,,0.00,Wunderground v.1.15,2013-08-24 02:45:00,
2013-08-23 22:50:00,71.7,69.6,30.05,ESE,107,1.0,1.0,93,0.00,,,0.00,Wunderground v.1.15,2013-08-24 02:50:00,
2013-08-23 22:55:00,71.3,69.2,30.06,West,272,1.0,1.0,93,0.00,,,0.00,Wunderground v.1.15,2013-08-24 02:55:00,
2013-08-23 23:00:00,71.1,69.0,30.06,NNW,340,0.0,3.0,93,0.00,,,0.00,Wunderground v.1.15,2013-08-24 03:00:00,
2013-08-23 23:05:00,70.8,69.0,30.06,NW,311,1.0,3.0,94,0.00,,,0.00,Wunderground v.1.15,2013-08-24 03:05:00,
2013-08-23 23:15:00,70.4,68.6,30.06,North,5,0.0,1.0,94,0.00,,,0.00,Wunderground v.1.15,2013-08-24 03:15:00,
2013-08-23 23:25:00,70.2,68.4,30.07,NNE,33,0.0,0.0,94,0.00,,,0.00,Wunderground v.1.15,2013-08-24 03:25:00,
2013-08-23 23:30:00,70.0,68.2,30.07,NNE,25,0.0,0.0,94,0.00,,,0.00,Wunderground v.1.15,2013-08-24 03:30:00,
2013-08-23 23:35:00,70.0,68.2,30.07,SE,130,0.0,0.0,94,0.00,,,0.00,Wunderground v.1.15,2013-08-24 03:35:00,
2013-08-23 23:40:00,69.9,68.1,30.07,NNE,27,0.0,1.0,94,0.00,,,0.00,Wunderground v.1.15,2013-08-24 03:40:00,
2013-08-23 23:50:00,69.8,68.0,30.07,NNW,330,0.0,1.0,94,0.00,,,0.00,Wunderground v.1.15,2013-08-24 03:50:00,
2013-08-23 23:55:00,69.7,67.6,30.07,NW,309,0.0,1.0,93,0.00,,,0.00,Wunderground v.1.15,2013-08-24 03:55:00,